Time,TemperatureF,DewpointF,PressureIn,WindDirection,WindDirectionDegrees,WindSpeedMPH,WindSpeedGustMPH,Humidity,HourlyPrecipIn,Conditions,Clouds,dailyrainin,SoftwareType,DateUTC
2013-04-01 00:05:00,51.3,49.9,29.71,NNE,30,0.0,18.0,95,0.00,,,0.01,Wunderground v.1.15,2013-04-01 05:05:00,
2013-04-01 00:10:00,51.2,49.8,29.71,NNE,30,0.0,18.0,95,0.00,,,0.01,Wunderground v.1.15,2013-04-01 05:10:00,
2013-04-01 00:15:00,51.2,50.1,29.71,NNE,30,0.0,18.0,96,0.00,,,0.01,Wunderground v.1.15,2013-04-01 05:15:00,
2013-04-01 00:25:00,51.1,50.0,29.71,NNE,30,0.0,18.0,96,0.00,,,0.01,Wunderground v.1.15,2013-04-01 05:25:00,
2013-04-01 00:30:00,51.0,49.9,29.71,NNE,30,0.0,18.0,96,0.00,,,0.01,Wunderground v.1.15,2013-04-01 05:30:00,
2013-04-01 00:35:00,51.0,49.9,29.71,NNE,30,0.0,18.0,96,0.00,,,0.01,Wunderground v.1.15,2013-04-01 05:35:00,
2013-04-01 00:40:00,50.9,49.8,29.72,NNE,30,0.0,18.0,96,0.00,,,0.01,Wunderground v.1.15,2013-04-01 05:40:00,
2013-04-01 00:50:00,50.8,49.7,29.72,NNE,30,0.0,18.0,96,0.00,,,0.01,Wunderground v.1.15,2013-04-01 05:50:00,
2013-04-01 01:00:00,50.5,49.4,29.72,NNE,30,0.0,18.0,96,0.00,,,0.01,Wunderground v.1.15,2013-04-01 06:00:00,
2013-04-01 01:05:00,50.4,49.3,29.72,NNE,30,0.0,18.0,96,0.00,,,0.01,Wunderground v.1.15,2013-04-01 06:05:00,
2013-04-01 01:10:00,50.4,49.3,29.72,NNE,30,0.0,18.0,96,0.00,,,0.01,Wunderground v.1.15,2013-04-01 06:10:00,
2013-04-01 01:15:00,50.3,49.2,29.72,NNE,30,0.0,18.0,96,0.00,,,0.01,Wunderground v.1.15,2013-04-01 06:15:00,
2013-04-01 01:20:00,50.1,49.0,29.72,NNE,30,0.0,18.0,96,0.00,,,0.01,Wunderground v.1.15,2013-04-01 06:20:00,
2013-04-01 01:25:00,49.9,48.8,29.72,NNE,30,0.0,18.0,96,0.00,,,0.01,Wunderground v.1.15,2013-04-01 06:25:00,
2013-04-01 01:30:00,49.7,48.6,29.72,NNE,30,0.0,18.0,96,0.00,,,0.01,Wunderground v.1.15,2013-04-01 06:30:00,
2013-04-01 01:35:00,49.5,48.4,29.72,NNE,30,0.0,18.0,96,0.00,,,0.01,Wunderground v.1.15,2013-04-01 06:35:00,
2013-04-01 01:40:00,49.2,48.1,29.72,NNE,30,0.0,18.0,96,0.00,,,0.01,Wunderground v.1.15,2013-04-01 06:40:00,
2013-04-01 01:50:00,49.2,48.1,29.72,NNE,30,0.0,18.0,96,0.00,,,0.01,Wunderground v.1.15,2013-04-01 06:50:00,
2013-04-01 01:55:00,49.0,47.9,29.72,NNE,30,0.0,18.0,96,0.00,,,0.02,Wunderground v.1.15,2013-04-01 06:55:00,
2013-04-01 02:00:00,48.9,47.8,29.72,NNE,30,0.0,18.0,96,0.00,,,0.02,Wunderground v.1.15,2013-04-01 07:00:00,
2013-04-01 02:05:00,48.9,47.8,29.72,NNE,30,0.0,18.0,96,0.00,,,0.02,Wunderground v.1.15,2013-04-01 07:05:00,
2013-04-01 02:10:00,48.8,47.7,29.72,NNE,30,0.0,18.0,96,0.00,,,0.02,Wunderground v.1.15,2013-04-01 07:10:00,
2013-04-01 02:15:00,48.9,47.8,29.72,NNE,30,0.0,18.0,96,0.00,,,0.02,Wunderground v.1.15,2013-04-01 07:15:00,
2013-04-01 02:20:00,49.0,47.9,29.72,NNE,30,0.0,18.0,96,0.00,,,0.02,Wunderground v.1.15,2013-04-01 07:20:00,
2013-04-01 02:30:00,48.6,47.5,29.72,NNE,30,0.0,18.0,96,0.00,,,0.02,Wunderground v.1.15,2013-04-01 07:30:00,
2013-04-01 02:40:00,48.6,47.5,29.72,NNE,30,0.0,18.0,96,0.00,,,0.02,Wunderground v.1.15,2013-04-01 07:40:00,
2013-04-01 02:45:00,48.5,47.4,29.72,NNE,30,0.0,18.0,96,0.00,,,0.02,Wunderground v.1.15,2013-04-01 07:45:00,
2013-04-01 02:50:00,48.5,47.4,29.72,NNE,30,0.0,18.0,96,0.00,,,0.02,Wunderground v.1.15,2013-04-01 07:50:00,
2013-04-01 02:55:00,48.3,47.2,29.72,NNE,30,0.0,18.0,96,0.00,,,0.02,Wunderground v.1.15,2013-04-01 07:55:00,
2013-04-01 03:00:00,48.0,46.9,29.72,NNE,30,0.0,18.0,96,0.00,,,0.02,Wunderground v.1.15,2013-04-01 08:00:00,
2013-04-01 03:05:00,48.0,46.9,29.72,NNE,30,0.0,18.0,96,0.00,,,0.02,Wunderground v.1.15,2013-04-01 08:05:00,
2013-04-01 03:15:00,48.3,47.5,29.72,NNE,30,0.0,18.0,97,0.00,,,0.02,Wunderground v.1.15,2013-04-01 08:15:00,
2013-04-01 03:20:00,48.3,47.5,29.72,NNE,30,0.0,18.0,97,0.00,,,0.02,Wunderground v.1.15,2013-04-01 08:20:00,
2013-04-01 03:25:00,48.4,47.6,29.72,NNE,30,0.0,18.0,97,0.00,,,0.02,Wunderground v.1.15,2013-04-01 08:25:00,
2013-04-01 03:35:00,47.9,46.8,29.72,NNE,30,0.0,18.0,96,0.00,,,0.02,Wunderground v.1.15,2013-04-01 08:35:00,
2013-04-01 03:40:00,47.9,47.1,29.73,NNE,30,0.0,18.0,97,0.00,,,0.02,Wunderground v.1.15,2013-04-01 08:40:00,
2013-04-01 03:45:00,47.8,47.0,29.73,NNE,30,0.0,18.0,97,0.00,,,0.02,Wunderground v.1.15,2013-04-01 08:45:00,
2013-04-01 03:50:00,47.5,46.4,29.73,NNE,30,0.0,18.0,96,0.00,,,0.02,Wunderground v.1.15,2013-04-01 08:50:00,
2013-04-01 03:55:00,47.6,46.8,29.74,NNE,30,0.0,18.0,97,0.00,,,0.00,Wunderground v.1.15,2013-04-01 08:55:00,
2013-04-01 04:00:00,48.1,47.3,29.74,NNE,30,0.0,18.0,97,0.00,,,0.00,Wunderground v.1.15,2013-04-01 09:00:00,
2013-04-01 04:05:00,48.3,47.5,29.74,NNE,30,0.0,18.0,97,0.00,,,0.00,Wunderground v.1.15,2013-04-01 09:05:00,
2013-04-01 04:10:00,48.3,47.5,29.73,NNE,30,0.0,18.0,97,0.00,,,0.00,Wunderground v.1.15,2013-04-01 09:10:00,
2013-04-01 04:20:00,47.9,47.1,29.73,NNE,30,0.0,18.0,97,0.00,,,0.00,Wunderground v.1.15,2013-04-01 09:20:00,
2013-04-01 04:30:00,47.4,46.6,29.73,NNE,30,0.0,18.0,97,0.00,,,0.00,Wunderground v.1.15,2013-04-01 09:30:00,
2013-04-01 04:35:00,47.3,46.5,29.73,NNE,30,0.0,18.0,97,0.00,,,0.00,Wunderground v.1.15,2013-04-01 09:35:00,
2013-04-01 04:40:00,47.4,46.6,29.73,NNE,30,0.0,18.0,97,0.00,,,0.00,Wunderground v.1.15,2013-04-01 09:40:00,
2013-04-01 04:45:00,47.5,46.7,29.73,NNE,30,0.0,18.0,97,0.00,,,0.00,Wunderground v.1.15,2013-04-01 09:45:00,
2013-04-01 04:55:00,47.7,46.9,29.73,NNE,30,0.0,18.0,97,0.00,,,0.00,Wunderground v.1.15,2013-04-01 09:55:00,
2013-04-01 05:00:00,47.7,46.9,29.73,NNE,30,0.0,18.0,97,0.00,,,0.00,Wunderground v.1.15,2013-04-01 10:00:00,
2013-04-01 05:10:00,47.6,46.8,29.74,NNE,30,0.0,18.0,97,0.00,,,0.00,Wunderground v.1.15,2013-04-01 10:10:00,
2013-04-01 05:15:00,47.5,46.7,29.74,NNE,30,0.0,18.0,97,0.00,,,0.00,Wunderground v.1.15,2013-04-01 10:15:00,
2013-04-01 05:20:00,47.2,46.4,29.74,NNE,30,0.0,18.0,97,0.00,,,0.00,Wunderground v.1.15,2013-04-01 10:20:00,
2013-04-01 05:30:00,46.8,46.0,29.74,NNE,30,0.0,18.0,97,0.00,,,0.00,Wunderground v.1.15,2013-04-01 10:30:00,
2013-04-01 05:35:00,46.9,46.1,29.74,NNE,30,0.0,18.0,97,0.00,,,0.00,Wunderground v.1.15,2013-04-01 10:35:00,
2013-04-01 05:40:00,46.8,46.0,29.75,NNE,30,0.0,18.0,97,0.00,,,0.00,Wunderground v.1.15,2013-04-01 10:40:00,
2013-04-01 05:45:00,46.7,45.9,29.75,NNE,30,0.0,18.0,97,0.00,,,0.00,Wunderground v.1.15,2013-04-01 10:45:00,
2013-04-01 05:50:00,46.6,45.8,29.75,NNE,30,0.0,18.0,97,0.00,,,0.00,Wunderground v.1.15,2013-04-01 10:50:00,
2013-04-01 05:55:00,46.5,45.7,29.75,NNE,30,0.0,18.0,97,0.00,,,0.00,Wunderground v.1.15,2013-04-01 10:55:00,
2013-04-01 06:00:00,46.5,45.7,29.75,NNE,30,0.0,18.0,97,0.00,,,0.00,Wunderground v.1.15,2013-04-01 11:00:00,
2013-04-01 06:05:00,46.4,45.6,29.75,NNE,30,0.0,18.0,97,0.00,,,0.00,Wunderground v.1.15,2013-04-01 11:05:00,
2013-04-01 06:15:00,46.3,45.5,29.76,NNE,30,0.0,18.0,97,0.00,,,0.00,Wunderground v.1.15,2013-04-01 11:15:00,
2013-04-01 06:20:00,46.2,45.4,29.76,NNE,30,0.0,18.0,97,0.00,,,0.00,Wunderground v.1.15,2013-04-01 11:20:00,
2013-04-01 06:25:00,46.2,45.4,29.77,NNE,30,0.0,18.0,97,0.00,,,0.00,Wunderground v.1.15,2013-04-01 11:25:00,
2013-04-01 06:30:00,46.3,45.5,29.77,NNE,30,0.0,18.0,97,0.00,,,0.00,Wunderground v.1.15,2013-04-01 11:30:00,
2013-04-01 06:40:00,46.5,45.7,29.78,NNE,30,0.0,18.0,97,0.00,,,0.00,Wunderground v.1.15,2013-04-01 11:40:00,
2013-04-01 06:45:00,46.7,45.9,29.78,NNE,30,0.0,18.0,97,0.00,,,0.00,Wunderground v.1.15,2013-04-01 11:45:00,
2013-04-01 06:50:00,47.0,46.2,29.78,NNE,30,0.0,18.0,97,0.00,,,0.00,Wunderground v.1.15,2013-04-01 11:50:00,
2013-04-01 06:55:00,47.4,46.6,29.78,NNE,30,0.0,18.0,97,0.00,,,0.00,Wunderground v.1.15,2013-04-01 11:55:00,
2013-04-01 07:05:00,48.2,47.4,29.78,NNE,30,0.0,18.0,97,0.00,,,0.00,Wunderground v.1.15,2013-04-01 12:05:00,
2013-04-01 07:15:00,48.7,47.9,29.79,NNE,30,0.0,18.0,97,0.00,,,0.00,Wunderground v.1.15,2013-04-01 12:15:00,
2013-04-01 07:20:00,48.9,48.1,29.79,NNE,30,0.0,18.0,97,0.00,,,0.00,Wunderground v.1.15,2013-04-01 12:20:00,
2013-04-01 07:25:00,49.2,48.4,29.79,NNE,30,0.0,18.0,97,0.00,,,0.00,Wunderground v.1.15,2013-04-01 12:25:00,
2013-04-01 07:30:00,49.4,48.6,29.79,NNE,30,0.0,18.0,97,0.00,,,0.00,Wunderground v.1.15,2013-04-01 12:30:00,
2013-04-01 07:35:00,49.7,48.9,29.79,NNE,30,0.0,18.0,97,0.00,,,0.00,Wunderground v.1.15,2013-04-01 12:35:00,
2013-04-01 07:40:00,50.1,49.3,29.80,NNE,30,0.0,18.0,97,0.00,,,0.00,Wunderground v.1.15,2013-04-01 12:40:00,
2013-04-01 07:45:00,50.6,49.8,29.80,NNE,30,0.0,18.0,97,0.00,,,0.00,Wunderground v.1.15,2013-04-01 12:45:00,
2013-04-01 07:50:00,51.0,50.2,29.80,NNE,30,0.0,18.0,97,0.00,,,0.00,Wunderground v.1.15,2013-04-01 12:50:00,
2013-04-01 07:55:00,51.7,50.9,29.80,NNE,30,0.0,18.0,97,0.00,,,0.00,Wunderground v.1.15,2013-04-01 12:55:00,
2013-04-01 08:00:00,51.8,51.0,29.80,North,360,2.0,18.0,97,0.00,,,0.00,Wunderground v.1.15,2013-04-01 13:00:00,
2013-04-01 08:10:00,52.1,51.3,29.82,NNW,331,4.0,4.0,97,0.00,,,0.00,Wunderground v.1.15,2013-04-01 13:10:00,
2013-04-01 08:20:00,52.7,51.3,29.82,NE,45,4.0,18.0,95,0.00,,,0.00,Wunderground v.1.15,2013-04-01 13:20:00,
2013-04-01 08:25:00,52.9,50.9,29.82,NNE,33,6.0,18.0,93,0.00,,,0.00,Wunderground v.1.15,2013-04-01 13:25:00,
2013-04-01 08:30:00,53.2,50.6,29.82,NE,48,6.0,18.0,91,0.00,,,0.00,Wunderground v.1.15,2013-04-01 13:30:00,
2013-04-01 08:35:00,53.5,50.0,29.82,NE,40,7.0,18.0,88,0.00,,,0.00,Wunderground v.1.15,2013-04-01 13:35:00,
2013-04-01 08:40:00,53.8,49.7,29.82,NE,39,7.0,18.0,86,0.00,,,0.00,Wunderground v.1.15,2013-04-01 13:40:00,
2013-04-01 08:45:00,53.9,48.9,29.82,NE,53,9.0,18.0,83,0.00,,,0.00,Wunderground v.1.15,2013-04-01 13:45:00,
2013-04-01 08:50:00,54.1,48.4,29.82,NE,49,10.0,18.0,81,0.00,,,0.00,Wunderground v.1.15,2013-04-01 13:50:00,
2013-04-01 08:55:00,54.2,47.8,29.83,NE,38,10.0,18.0,79,0.00,,,0.00,Wunderground v.1.15,2013-04-01 13:55:00,
2013-04-01 09:00:00,54.2,47.8,29.83,NNE,18,12.0,12.0,79,0.00,,,0.00,Wunderground v.1.15,2013-04-01 14:00:00,
2013-04-01 09:10:00,54.5,47.8,29.83,NE,38,11.0,11.0,78,0.00,,,0.00,Wunderground v.1.15,2013-04-01 14:10:00,
2013-04-01 09:15:00,54.6,47.5,29.83,NNE,26,11.0,18.0,77,0.00,,,0.00,Wunderground v.1.15,2013-04-01 14:15:00,
2013-04-01 09:20:00,54.8,48.1,29.83,ENE,62,11.0,11.0,78,0.00,,,0.00,Wunderground v.1.15,2013-04-01 14:20:00,
2013-04-01 09:25:00,55.2,48.1,29.82,ENE,67,8.0,18.0,77,0.00,,,0.00,Wunderground v.1.15,2013-04-01 14:25:00,
2013-04-01 09:30:00,55.5,48.1,29.82,NE,51,7.0,18.0,76,0.00,,,0.00,Wunderground v.1.15,2013-04-01 14:30:00,
2013-04-01 09:35:00,55.7,48.2,29.82,NE,36,7.0,18.0,76,0.00,,,0.00,Wunderground v.1.15,2013-04-01 14:35:00,
2013-04-01 09:40:00,56.0,48.5,29.83,NE,42,8.0,8.0,76,0.00,,,0.00,Wunderground v.1.15,2013-04-01 14:40:00,
2013-04-01 09:45:00,56.4,48.9,29.83,East,80,8.0,18.0,76,0.00,,,0.00,Wunderground v.1.15,2013-04-01 14:45:00,
2013-04-01 09:50:00,56.7,48.5,29.83,NE,38,7.0,18.0,74,0.00,,,0.00,Wunderground v.1.15,2013-04-01 14:50:00,
2013-04-01 10:00:00,56.5,48.3,29.83,NE,47,8.0,8.0,74,0.00,,,0.00,Wunderground v.1.15,2013-04-01 15:00:00,
2013-04-01 10:05:00,56.9,48.3,29.83,NE,41,8.0,18.0,73,0.00,,,0.00,Wunderground v.1.15,2013-04-01 15:05:00,
2013-04-01 10:10:00,56.9,48.3,29.83,NNE,22,8.0,18.0,73,0.00,,,0.00,Wunderground v.1.15,2013-04-01 15:10:00,
2013-04-01 10:15:00,57.6,49.0,29.83,NE,48,8.0,18.0,73,0.00,,,0.00,Wunderground v.1.15,2013-04-01 15:15:00,
2013-04-01 10:20:00,57.4,48.1,29.83,ENE,62,8.0,8.0,71,0.00,,,0.00,Wunderground v.1.15,2013-04-01 15:20:00,
2013-04-01 10:25:00,57.7,48.4,29.83,NE,49,9.0,9.0,71,0.00,,,0.00,Wunderground v.1.15,2013-04-01 15:25:00,
2013-04-01 10:30:00,57.6,47.9,29.83,ENE,65,9.0,9.0,70,0.00,,,0.00,Wunderground v.1.15,2013-04-01 15:30:00,
2013-04-01 10:35:00,57.8,48.5,29.83,East,80,9.0,18.0,71,0.00,,,0.00,Wunderground v.1.15,2013-04-01 15:35:00,
2013-04-01 10:40:00,58.1,48.4,29.83,ENE,64,8.0,18.0,70,0.00,,,0.00,Wunderground v.1.15,2013-04-01 15:40:00,
2013-04-01 10:45:00,58.4,48.3,29.83,East,87,8.0,18.0,69,0.00,,,0.00,Wunderground v.1.15,2013-04-01 15:45:00,
2013-04-01 10:50:00,58.7,48.2,29.83,ENE,57,8.0,8.0,68,0.00,,,0.00,Wunderground v.1.15,2013-04-01 15:50:00,
2013-04-01 11:00:00,59.0,47.2,29.83,NNE,22,7.0,7.0,65,0.00,,,0.00,Wunderground v.1.15,2013-04-01 16:00:00,
2013-04-01 11:05:00,59.3,47.5,29.83,ENE,63,8.0,15.0,65,0.00,,,0.00,Wunderground v.1.15,2013-04-01 16:05:00,
2013-04-01 11:10:00,59.6,47.0,29.84,ENE,57,8.0,8.0,63,0.00,,,0.00,Wunderground v.1.15,2013-04-01 16:10:00,
2013-04-01 11:15:00,59.5,47.3,29.84,NE,49,8.0,18.0,64,0.00,,,0.00,Wunderground v.1.15,2013-04-01 16:15:00,
2013-04-01 11:25:00,60.6,48.4,29.85,NE,43,7.0,18.0,64,0.00,,,0.00,Wunderground v.1.15,2013-04-01 16:25:00,
2013-04-01 11:30:00,60.3,48.1,29.85,NE,36,7.0,18.0,64,0.00,,,0.00,Wunderground v.1.15,2013-04-01 16:30:00,
2013-04-01 11:35:00,59.8,47.2,29.85,North,10,8.0,18.0,63,0.00,,,0.00,Wunderground v.1.15,2013-04-01 16:35:00,
2013-04-01 11:45:00,60.7,47.2,29.85,NE,47,6.0,18.0,61,0.00,,,0.00,Wunderground v.1.15,2013-04-01 16:45:00,
2013-04-01 11:50:00,60.9,48.2,29.85,NNW,342,6.0,6.0,63,0.00,,,0.00,Wunderground v.1.15,2013-04-01 16:50:00,
2013-04-01 11:55:00,60.8,48.1,29.86,NNW,337,5.0,18.0,63,0.00,,,0.00,Wunderground v.1.15,2013-04-01 16:55:00,
2013-04-01 12:00:00,60.8,46.8,29.86,ENE,71,5.0,18.0,60,0.00,,,0.00,Wunderground v.1.15,2013-04-01 17:00:00,
2013-04-01 12:05:00,60.7,47.2,29.86,East,101,7.0,18.0,61,0.00,,,0.00,Wunderground v.1.15,2013-04-01 17:05:00,
2013-04-01 12:15:00,61.8,48.6,29.85,ENE,59,8.0,18.0,62,0.00,,,0.00,Wunderground v.1.15,2013-04-01 17:15:00,
2013-04-01 12:20:00,61.9,48.3,29.85,NE,50,6.0,18.0,61,0.00,,,0.00,Wunderground v.1.15,2013-04-01 17:20:00,
2013-04-01 12:25:00,61.7,48.5,29.86,NNE,15,6.0,18.0,62,0.00,,,0.00,Wunderground v.1.15,2013-04-01 17:25:00,
2013-04-01 12:30:00,61.6,47.6,29.86,NE,36,6.0,18.0,60,0.00,,,0.00,Wunderground v.1.15,2013-04-01 17:30:00,
2013-04-01 12:35:00,61.7,48.1,29.86,NW,323,5.0,18.0,61,0.00,,,0.00,Wunderground v.1.15,2013-04-01 17:35:00,
2013-04-01 12:40:00,62.2,48.1,29.85,East,82,5.0,18.0,60,0.00,,,0.00,Wunderground v.1.15,2013-04-01 17:40:00,
2013-04-01 12:45:00,61.6,47.6,29.85,NE,49,7.0,18.0,60,0.00,,,0.00,Wunderground v.1.15,2013-04-01 17:45:00,
2013-04-01 12:55:00,63.1,48.5,29.85,North,5,3.0,18.0,59,0.00,,,0.00,Wunderground v.1.15,2013-04-01 17:55:00,
2013-04-01 13:00:00,63.2,47.7,29.85,NE,56,3.0,18.0,57,0.00,,,0.00,Wunderground v.1.15,2013-04-01 18:00:00,
2013-04-01 13:10:00,63.4,47.4,29.85,WNW,286,6.0,18.0,56,0.00,,,0.00,Wunderground v.1.15,2013-04-01 18:10:00,
2013-04-01 13:15:00,64.7,48.2,29.85,North,350,3.0,18.0,55,0.00,,,0.00,Wunderground v.1.15,2013-04-01 18:15:00,
2013-04-01 13:20:00,64.0,47.0,29.85,ENE,58,4.0,18.0,54,0.00,,,0.00,Wunderground v.1.15,2013-04-01 18:20:00,
2013-04-01 13:30:00,64.1,47.1,29.85,NNW,335,4.0,4.0,54,0.00,,,0.00,Wunderground v.1.15,2013-04-01 18:30:00,
2013-04-01 13:35:00,65.5,47.4,29.85,NNE,19,3.0,8.0,52,0.00,,,0.00,Wunderground v.1.15,2013-04-01 18:35:00,
2013-04-01 13:40:00,64.5,47.0,29.84,NNE,26,5.0,18.0,53,0.00,,,0.00,Wunderground v.1.15,2013-04-01 18:40:00,
2013-04-01 13:45:00,63.6,46.6,29.84,ENE,59,6.0,18.0,54,0.00,,,0.00,Wunderground v.1.15,2013-04-01 18:45:00,
2013-04-01 13:50:00,63.9,46.4,29.84,East,97,3.0,3.0,53,0.00,,,0.00,Wunderground v.1.15,2013-04-01 18:50:00,
2013-04-01 14:00:00,64.5,47.0,29.83,NE,55,3.0,3.0,53,0.00,,,0.00,Wunderground v.1.15,2013-04-01 19:00:00,
2013-04-01 14:05:00,65.0,46.9,29.83,NNE,33,2.0,18.0,52,0.00,,,0.00,Wunderground v.1.15,2013-04-01 19:05:00,
2013-04-01 14:15:00,65.5,46.4,29.83,NE,40,4.0,18.0,50,0.00,,,0.00,Wunderground v.1.15,2013-04-01 19:15:00,
2013-04-01 14:20:00,65.0,46.9,29.83,NE,48,4.0,4.0,52,0.00,,,0.00,Wunderground v.1.15,2013-04-01 19:20:00,
2013-04-01 14:25:00,64.8,47.3,29.83,NNW,343,3.0,18.0,53,0.00,,,0.00,Wunderground v.1.15,2013-04-01 19:25:00,
2013-04-01 14:35:00,65.2,46.6,29.83,ENE,78,2.0,18.0,51,0.00,,,0.00,Wunderground v.1.15,2013-04-01 19:35:00,
2013-04-01 14:40:00,65.3,47.2,29.82,NE,34,3.0,18.0,52,0.00,,,0.00,Wunderground v.1.15,2013-04-01 19:40:00,
2013-04-01 14:45:00,65.9,47.8,29.82,NE,38,4.0,18.0,52,0.00,,,0.00,Wunderground v.1.15,2013-04-01 19:45:00,
2013-04-01 14:50:00,65.4,46.8,29.82,North,350,5.0,5.0,51,0.00,,,0.00,Wunderground v.1.15,2013-04-01 19:50:00,
2013-04-01 14:55:00,65.9,46.7,29.82,East,80,3.0,18.0,50,0.00,,,0.00,Wunderground v.1.15,2013-04-01 19:55:00,
2013-04-01 15:00:00,65.4,46.8,29.82,NNE,28,1.0,18.0,51,0.00,,,0.00,Wunderground v.1.15,2013-04-01 20:00:00,
2013-04-01 15:10:00,66.3,47.1,29.82,East,79,4.0,18.0,50,0.00,,,0.00,Wunderground v.1.15,2013-04-01 20:10:00,
2013-04-01 15:20:00,66.1,46.9,29.82,NNE,32,7.0,7.0,50,0.00,,,0.00,Wunderground v.1.15,2013-04-01 20:20:00,
2013-04-01 15:25:00,66.5,47.8,29.81,ENE,61,6.0,18.0,51,0.00,,,0.00,Wunderground v.1.15,2013-04-01 20:25:00,
2013-04-01 15:30:00,66.1,46.9,29.81,ENE,60,5.0,5.0,50,0.00,,,0.00,Wunderground v.1.15,2013-04-01 20:30:00,
2013-04-01 15:35:00,67.1,47.3,29.81,WNW,303,2.0,18.0,49,0.00,,,0.00,Wunderground v.1.15,2013-04-01 20:35:00,
2013-04-01 15:45:00,68.2,47.2,29.81,NNE,30,3.0,18.0,47,0.00,,,0.00,Wunderground v.1.15,2013-04-01 20:45:00,
2013-04-01 15:50:00,68.5,47.5,29.81,NW,305,2.0,2.0,47,0.00,,,0.00,Wunderground v.1.15,2013-04-01 20:50:00,
2013-04-01 15:55:00,69.0,47.4,29.81,WNW,300,3.0,3.0,46,0.00,,,0.00,Wunderground v.1.15,2013-04-01 20:55:00,
2013-04-01 16:00:00,68.4,47.4,29.81,NW,306,4.0,18.0,47,0.00,,,0.00,Wunderground v.1.15,2013-04-01 21:00:00,
2013-04-01 16:05:00,67.6,46.6,29.81,NNE,18,5.0,18.0,47,0.00,,,0.00,Wunderground v.1.15,2013-04-01 21:05:00,
2013-04-01 16:15:00,67.1,46.7,29.81,North,360,2.0,9.0,48,0.00,,,0.00,Wunderground v.1.15,2013-04-01 21:15:00,
2013-04-01 16:25:00,67.4,46.5,29.81,North,5,6.0,18.0,47,0.00,,,0.00,Wunderground v.1.15,2013-04-01 21:25:00,
2013-04-01 16:30:00,67.9,46.9,29.81,NW,316,5.0,5.0,47,0.00,,,0.00,Wunderground v.1.15,2013-04-01 21:30:00,
2013-04-01 16:35:00,68.1,47.1,29.81,North,355,6.0,10.0,47,0.00,,,0.00,Wunderground v.1.15,2013-04-01 21:35:00,
2013-04-01 16:40:00,67.9,46.9,29.81,NNW,337,6.0,18.0,47,0.00,,,0.00,Wunderground v.1.15,2013-04-01 21:40:00,
2013-04-01 16:50:00,66.5,46.2,29.81,WNW,293,5.0,18.0,48,0.00,,,0.00,Wunderground v.1.15,2013-04-01 21:50:00,
2013-04-01 16:55:00,66.7,46.4,29.81,North,10,5.0,18.0,48,0.00,,,0.00,Wunderground v.1.15,2013-04-01 21:55:00,
2013-04-01 17:00:00,66.5,46.7,29.81,North,9,6.0,6.0,49,0.00,,,0.00,Wunderground v.1.15,2013-04-01 22:00:00,
2013-04-01 17:05:00,66.5,46.2,29.81,NW,314,5.0,18.0,48,0.00,,,0.00,Wunderground v.1.15,2013-04-01 22:05:00,
2013-04-01 17:10:00,66.3,46.0,29.82,NNW,336,4.0,4.0,48,0.00,,,0.00,Wunderground v.1.15,2013-04-01 22:10:00,
2013-04-01 17:15:00,65.8,46.1,29.82,NNE,27,4.0,6.0,49,0.00,,,0.00,Wunderground v.1.15,2013-04-01 22:15:00,
2013-04-01 17:25:00,65.3,46.2,29.81,NE,50,6.0,18.0,50,0.00,,,0.00,Wunderground v.1.15,2013-04-01 22:25:00,
2013-04-01 17:30:00,64.9,45.8,29.81,NNW,338,6.0,6.0,50,0.00,,,0.00,Wunderground v.1.15,2013-04-01 22:30:00,
2013-04-01 17:35:00,65.1,45.5,29.81,NNW,338,6.0,7.0,49,0.00,,,0.00,Wunderground v.1.15,2013-04-01 22:35:00,
2013-04-01 17:40:00,65.1,45.5,29.81,NE,44,5.0,5.0,49,0.00,,,0.00,Wunderground v.1.15,2013-04-01 22:40:00,
2013-04-01 17:45:00,64.7,45.1,29.81,NNW,337,5.0,18.0,49,0.00,,,0.00,Wunderground v.1.15,2013-04-01 22:45:00,
2013-04-01 17:50:00,64.4,45.3,29.81,NNE,18,5.0,5.0,50,0.00,,,0.00,Wunderground v.1.15,2013-04-01 22:50:00,
2013-04-01 18:00:00,64.0,45.0,29.82,NNE,22,7.0,7.0,50,0.00,,,0.00,Wunderground v.1.15,2013-04-01 23:00:00,
2013-04-01 18:05:00,63.8,45.3,29.82,North,360,8.0,8.0,51,0.00,,,0.00,Wunderground v.1.15,2013-04-01 23:05:00,
2013-04-01 18:10:00,63.4,44.9,29.82,NE,40,8.0,8.0,51,0.00,,,0.00,Wunderground v.1.15,2013-04-01 23:10:00,
2013-04-01 18:15:00,63.2,44.8,29.82,NNE,19,7.0,18.0,51,0.00,,,0.00,Wunderground v.1.15,2013-04-01 23:15:00,
2013-04-01 18:20:00,63.1,44.7,29.82,NNW,342,6.0,18.0,51,0.00,,,0.00,Wunderground v.1.15,2013-04-01 23:20:00,
2013-04-01 18:30:00,62.9,44.5,29.83,NNW,344,6.0,6.0,51,0.00,,,0.00,Wunderground v.1.15,2013-04-01 23:30:00,
2013-04-01 18:40:00,62.0,44.7,29.84,WNW,298,7.0,18.0,53,0.00,,,0.00,Wunderground v.1.15,2013-04-01 23:40:00,
2013-04-01 18:45:00,61.5,44.2,29.84,NW,311,7.0,18.0,53,0.00,,,0.00,Wunderground v.1.15,2013-04-01 23:45:00,
2013-04-01 18:50:00,61.1,44.3,29.84,NNW,330,7.0,7.0,54,0.00,,,0.00,Wunderground v.1.15,2013-04-01 23:50:00,
2013-04-01 18:55:00,60.7,44.4,29.84,North,9,5.0,18.0,55,0.00,,,0.00,Wunderground v.1.15,2013-04-01 23:55:00,
2013-04-01 19:05:00,60.4,44.6,29.84,NE,55,4.0,18.0,56,0.00,,,0.00,Wunderground v.1.15,2013-04-02 00:05:00,
2013-04-01 19:10:00,60.1,44.3,29.84,NNW,341,5.0,18.0,56,0.00,,,0.00,Wunderground v.1.15,2013-04-02 00:10:00,
2013-04-01 19:15:00,60.0,44.3,29.84,NNW,348,4.0,18.0,56,0.00,,,0.00,Wunderground v.1.15,2013-04-02 00:15:00,
2013-04-01 19:25:00,59.8,44.5,29.83,NE,46,1.0,18.0,57,0.00,,,0.00,Wunderground v.1.15,2013-04-02 00:25:00,
2013-04-01 19:30:00,59.6,43.9,29.83,ENE,67,3.0,18.0,56,0.00,,,0.00,Wunderground v.1.15,2013-04-02 00:30:00,
2013-04-01 19:40:00,59.2,43.5,29.83,NE,36,6.0,6.0,56,0.00,,,0.00,Wunderground v.1.15,2013-04-02 00:40:00,
2013-04-01 19:45:00,59.0,43.3,29.83,NE,55,6.0,18.0,56,0.00,,,0.00,Wunderground v.1.15,2013-04-02 00:45:00,
2013-04-01 19:50:00,59.0,43.8,29.83,NE,41,5.0,18.0,57,0.00,,,0.00,Wunderground v.1.15,2013-04-02 00:50:00,
2013-04-01 19:55:00,59.0,43.8,29.83,NE,42,3.0,18.0,57,0.00,,,0.00,Wunderground v.1.15,2013-04-02 00:55:00,
2013-04-01 20:00:00,59.0,43.8,29.83,NE,42,4.0,4.0,57,0.00,,,0.00,Wunderground v.1.15,2013-04-02 01:00:00,
2013-04-01 20:05:00,58.8,44.0,29.83,NE,42,3.0,18.0,58,0.00,,,0.00,Wunderground v.1.15,2013-04-02 01:05:00,
2013-04-01 20:15:00,58.2,43.9,29.85,NNE,29,0.0,18.0,59,0.00,,,0.00,Wunderground v.1.15,2013-04-02 01:15:00,
2013-04-01 20:20:00,58.2,43.9,29.85,NNE,30,0.0,18.0,59,0.00,,,0.00,Wunderground v.1.15,2013-04-02 01:20:00,
2013-04-01 20:30:00,58.0,44.2,29.85,NE,51,0.0,18.0,60,0.00,,,0.00,Wunderground v.1.15,2013-04-02 01:30:00,
2013-04-01 20:35:00,57.9,44.1,29.85,NE,51,0.0,18.0,60,0.00,,,0.00,Wunderground v.1.15,2013-04-02 01:35:00,
2013-04-01 20:40:00,57.9,44.1,29.85,NE,51,0.0,18.0,60,0.00,,,0.00,Wunderground v.1.15,2013-04-02 01:40:00,
2013-04-01 20:50:00,57.7,43.5,29.85,NNE,25,1.0,1.0,59,0.00,,,0.00,Wunderground v.1.15,2013-04-02 01:50:00,
2013-04-01 20:55:00,57.7,43.5,29.86,NE,36,1.0,18.0,59,0.00,,,0.00,Wunderground v.1.15,2013-04-02 01:55:00,
2013-04-01 21:00:00,57.7,43.5,29.86,NE,36,1.0,1.0,59,0.00,,,0.00,Wunderground v.1.15,2013-04-02 02:00:00,
2013-04-01 21:05:00,57.8,43.6,29.86,NE,36,0.0,18.0,59,0.00,,,0.00,Wunderground v.1.15,2013-04-02 02:05:00,
2013-04-01 21:10:00,57.7,43.5,29.86,NE,48,1.0,18.0,59,0.00,,,0.00,Wunderground v.1.15,2013-04-02 02:10:00,
2013-04-01 21:20:00,57.5,43.3,29.86,NE,50,4.0,18.0,59,0.00,,,0.00,Wunderground v.1.15,2013-04-02 02:20:00,
2013-04-01 21:25:00,57.4,44.1,29.86,NE,49,3.0,18.0,61,0.00,,,0.00,Wunderground v.1.15,2013-04-02 02:25:00,
2013-04-01 21:35:00,57.3,43.1,29.86,NE,49,3.0,18.0,59,0.00,,,0.00,Wunderground v.1.15,2013-04-02 02:35:00,
2013-04-01 21:40:00,57.2,43.4,29.86,ENE,63,4.0,4.0,60,0.00,,,0.00,Wunderground v.1.15,2013-04-02 02:40:00,
2013-04-01 21:50:00,56.9,43.6,29.86,NE,46,4.0,18.0,61,0.00,,,0.00,Wunderground v.1.15,2013-04-02 02:50:00,
2013-04-01 22:00:00,56.6,43.3,29.87,NE,46,4.0,4.0,61,0.00,,,0.00,Wunderground v.1.15,2013-04-02 03:00:00,
2013-04-01 22:05:00,56.6,43.3,29.87,NE,49,3.0,18.0,61,0.00,,,0.00,Wunderground v.1.15,2013-04-02 03:05:00,
2013-04-01 22:10:00,56.5,43.2,29.88,NE,49,3.0,3.0,61,0.00,,,0.00,Wunderground v.1.15,2013-04-02 03:10:00,
2013-04-01 22:15:00,56.4,43.1,29.88,NE,50,3.0,4.0,61,0.00,,,0.00,Wunderground v.1.15,2013-04-02 03:15:00,
2013-04-01 22:20:00,56.7,43.4,29.88,ENE,65,4.0,4.0,61,0.00,,,0.00,Wunderground v.1.15,2013-04-02 03:20:00,
2013-04-01 22:30:00,56.4,42.7,29.87,ENE,69,5.0,18.0,60,0.00,,,0.00,Wunderground v.1.15,2013-04-02 03:30:00,
2013-04-01 22:40:00,56.1,42.4,29.87,ENE,57,4.0,18.0,60,0.00,,,0.00,Wunderground v.1.15,2013-04-02 03:40:00,
2013-04-01 22:45:00,56.0,42.3,29.87,ENE,78,5.0,18.0,60,0.00,,,0.00,Wunderground v.1.15,2013-04-02 03:45:00,
2013-04-01 22:50:00,55.9,42.2,29.87,ENE,62,4.0,18.0,60,0.00,,,0.00,Wunderground v.1.15,2013-04-02 03:50:00,
2013-04-01 22:55:00,55.8,41.7,29.86,NE,56,5.0,18.0,59,0.00,,,0.00,Wunderground v.1.15,2013-04-02 03:55:00,
2013-04-01 23:00:00,55.7,42.0,29.86,ENE,64,6.0,18.0,60,0.00,,,0.00,Wunderground v.1.15,2013-04-02 04:00:00,
2013-04-01 23:05:00,55.6,41.9,29.86,ENE,69,6.0,18.0,60,0.00,,,0.00,Wunderground v.1.15,2013-04-02 04:05:00,
2013-04-01 23:10:00,55.5,41.4,29.86,ENE,59,6.0,18.0,59,0.00,,,0.00,Wunderground v.1.15,2013-04-02 04:10:00,
2013-04-01 23:15:00,55.5,41.8,29.86,ENE,59,6.0,18.0,60,0.00,,,0.00,Wunderground v.1.15,2013-04-02 04:15:00,
2013-04-01 23:20:00,55.4,41.7,29.86,ENE,72,5.0,18.0,60,0.00,,,0.00,Wunderground v.1.15,2013-04-02 04:20:00,
2013-04-01 23:25:00,55.3,41.6,29.86,ENE,63,5.0,18.0,60,0.00,,,0.00,Wunderground v.1.15,2013-04-02 04:25:00,
2013-04-01 23:35:00,55.0,41.4,29.86,ENE,66,8.0,18.0,60,0.00,,,0.00,Wunderground v.1.15,2013-04-02 04:35:00,
2013-04-01 23:40:00,54.9,41.3,29.85,NE,55,7.0,18.0,60,0.00,,,0.00,Wunderground v.1.15,2013-04-02 04:40:00,
2013-04-01 23:45:00,55.1,41.5,29.85,NE,55,8.0,18.0,60,0.00,,,0.00,Wunderground v.1.15,2013-04-02 04:45:00,
2013-04-01 23:50:00,54.8,41.2,29.85,ENE,73,8.0,8.0,60,0.00,,,0.00,Wunderground v.1.15,2013-04-02 04:50:00,
2013-04-01 23:55:00,54.6,41.0,29.85,ENE,63,7.0,18.0,60,0.00,,,0.00,Wunderground v.1.15,2013-04-02 04:55:00,